Regional Weather Roundup
Issued by NWS

Home | Current Version | Previous Version | Graphics & Text | Print | Product List | Glossary On
Versions: 1 2 3 4 5 6 7 8 9 10 11 12 13 14 15 16 17 18 19 20 21 22 23 24 25 26 27 28 29 30 31 32 33 34 35 36 37 38 39 40 41 42 43 44 45 46 47 48 49 50
000
ASUS45 KABQ 251301
RWRNM
WEATHER ROUNDUP FOR NEW MEXICO
NATIONAL WEATHER SERVICE ALBUQUERQUE NM
700 AM MDT SAT APR 25 2015

NOTE: "FAIR" MEANS FEW OR NO CLOUDS BELOW 12,000 FEET AGL WITH NO
       SIGNIFICANT WEATHER OR OBSTRUCTIONS TO VISION.

      THIS PRODUCT IS RELEASED AS TWO VERSIONS.  ONE VERSION NEAR
      THE TOP OF THE HOUR CONTAINING PRELIMINARY DATA FROM ALBUQUERQUE
      AND OTHER STATIONS.  A FINAL VERSION WITH ADDITIONAL DATA IS
      ISSUED ABOUT 10 MINUTES AFTER THE HOUR.

NMZ501-503-504-510>518-251400-
NORTHWEST PLATEAU/NORTHCENTRAL MOUNTAINS

CITY           SKY/WX    TMP DP  RH WIND       PRES   REMARKS
FARMINGTON     PTCLDY    41  35  79 NE5       29.92R
LOS ALAMOS     CLOUDY    44  32  63 CALM      30.00R
SANTA FE       PTCLDY    38  30  73 S3        29.97R
TAOS           MOCLDY    37  27  65 SW3       29.98S
ANGEL FIRE     CLOUDY    36  31  82 CALM      30.00R

$$
NMZ402-403-502-505>509-251400-
WESTCENTRAL MOUNTAINS/SOUTHWEST MOUNTAINS

CITY           SKY/WX    TMP DP  RH WIND       PRES   REMARKS
GALLUP         PTCLDY    39  35  86 S8        29.99S WCI  33
GRANTS         PTCLDY    41  32  70 CALM      30.00S
SILVER CITY      N/A     39  32  75 NW9       30.03R WCI  33

$$
NMZ407-409-411-412-251400-
SOUTHERN DESERTS

CITY           SKY/WX    TMP DP  RH WIND       PRES   REMARKS
LORDSBURG      FAIR      37  27  65 S3        29.99S
DEMING         CLEAR     41  31  67 CALM      30.00R
LAS CRUCES     CLEAR     44  31  60 W8        30.00R
ALAMOGORDO     CLEAR     46  30  53 S8        29.97R
T OR C         CLEAR     45  31  58 W6        29.97R

$$
NMZ519>523-251400-
CENTRAL VALLEYS/CENTRAL HIGHLANDS

CITY           SKY/WX    TMP DP  RH WIND       PRES   REMARKS
ALBUQUERQUE    PTCLDY    42  35  76 SE8       29.97S
DOUBLE EAGLE   PTCLDY    34  30  86 NW3       29.98R
MORIARTY ARPT  FAIR      44  31  60 CALM      29.98S
CLINES CORNERS CLEAR     37  30  75 NW14      29.96R WCI  28
BELEN          FAIR      42  32  68 SW5       29.98S
SOCORRO        NOT AVBL

$$
NMZ524>526-539-540-251400-
SOUTHCENTRAL MOUNTAINS

CITY           SKY/WX    TMP DP  RH WIND       PRES   REMARKS
RUIDOSO        NOT AVBL

$$
NMZ527>531-251400-
NORTHEAST HIGHLANDS/NORTHEAST PLAINS

CITY           SKY/WX    TMP DP  RH WIND       PRES   REMARKS
LAS VEGAS      PTCLDY    39  26  59 W5        29.93R
RATON          PTCLDY    34  24  67 NE8       29.88R WCI  27
CLAYTON        CLEAR     45  26  47 W10       29.80R

$$
NMZ532>537-251400-
EASTCENTRAL PLAINS

CITY           SKY/WX    TMP DP  RH WIND       PRES   REMARKS
TUCUMCARI      CLEAR     53  34  48 W13       29.82R
CANNON AFB     NOT AVBL
CLOVIS AIRPORT CLEAR     48  32  53 W16       29.85S

$$
NMZ028-029-538-251400-
SOUTHEAST PLAINS

CITY           SKY/WX    TMP DP  RH WIND       PRES   REMARKS
ROSWELL        CLEAR     49  33  54 W7        29.91R
ARTESIA        CLEAR     50  30  46 W13       29.93R
CARLSBAD       CLEAR     50  32  50 SW7       29.91R
HOBBS          CLEAR     48  30  49 W9        29.91R


$$



USA.gov is the U.S. government's official web portal to all federal, state and local government web resources and services.